SKW6191 KDFW-KROW

Flight info

Callsign SKW6191
Flight time 1h 18m
Altitude 36000
Route KATZZ2 BRHMA FLATT FRAIZ
Aircraft CRJ7/M-SDFGIRWY/S

Departure

Time 2026-05-05 19:33
Airport Dallas Fort Worth International Airport (KDFW)

Arrival

Time 2026-05-05 20:52
Airport Roswell Air Center Airport (KROW)
Time Latitude Longitude Altitude Speed Heading
2026-05-05 19:31 32.90992 -97.04884 614 ft 58 kts
2026-05-05 19:31 32.91314 -97.04882 618 ft 21 kts
2026-05-05 19:31 32.91465 -97.04879 621 ft 17 kts
2026-05-05 19:32 32.91510 -97.04879 614 ft 1 kts
2026-05-05 19:32 32.91563 -97.04897 617 ft 14 kts 307°
2026-05-05 19:32 32.91565 -97.05060 614 ft 12 kts 238°
2026-05-05 19:32 32.91488 -97.05075 620 ft 31 kts 180°
2026-05-05 19:33 32.91087 -97.05075 620 ft 91 kts 179°
2026-05-05 19:33 32.90233 -97.05080 636 ft 148 kts 181°
2026-05-05 19:33 32.89140 -97.05090 1209 ft 163 kts 182°
2026-05-05 19:33 32.87977 -97.05080 1922 ft 173 kts 186°
2026-05-05 19:34 32.86668 -97.05125 2334 ft 204 kts 185°
2026-05-05 19:34 32.85179 -97.05259 2783 ft 225 kts 188°
2026-05-05 19:34 32.83539 -97.05337 3313 ft 246 kts 184°
2026-05-05 19:35 32.80023 -97.05276 5345 ft 259 kts 184°
2026-05-05 19:35 32.78210 -97.05271 6367 ft 263 kts 185°
2026-05-05 19:35 32.76364 -97.05303 7333 ft 266 kts 186°
2026-05-05 19:35 32.74505 -97.05330 8351 ft 268 kts 186°
2026-05-05 19:36 32.72681 -97.05653 9129 ft 262 kts 210°
2026-05-05 19:36 32.71341 -97.07026 9829 ft 255 kts 235°
2026-05-05 19:36 32.70347 -97.08761 10542 ft 254 kts 240°
2026-05-05 19:36 32.69594 -97.10640 11229 ft 253 kts 253°
2026-05-05 19:37 32.69154 -97.12661 11934 ft 253 kts 257°
2026-05-05 19:37 32.69006 -97.14768 12380 ft 266 kts 269°
2026-05-05 19:37 32.69144 -97.17024 12740 ft 279 kts 272°
2026-05-05 19:37 32.69357 -97.19320 13428 ft 281 kts 273°
2026-05-05 19:38 32.69579 -97.21631 14066 ft 282 kts 272°
2026-05-05 19:38 32.69763 -97.23923 14666 ft 283 kts 271°
2026-05-05 19:38 32.69951 -97.26259 15301 ft 286 kts 274°
2026-05-05 19:38 32.70280 -97.28599 15892 ft 289 kts 276°
2026-05-05 19:39 32.70691 -97.30944 16494 ft 291 kts 277°
2026-05-05 19:39 32.71125 -97.33304 17073 ft 294 kts 277°
2026-05-05 19:39 32.71567 -97.35676 17655 ft 295 kts 277°
2026-05-05 19:39 32.71987 -97.38068 18197 ft 296 kts 276°
2026-05-05 19:40 32.72394 -97.40468 18713 ft 296 kts 277°
2026-05-05 19:40 32.72799 -97.42865 19251 ft 296 kts 277°
2026-05-05 19:40 32.73209 -97.45264 19783 ft 296 kts 277°
2026-05-05 19:40 32.73615 -97.47662 20305 ft 296 kts 277°
2026-05-05 19:41 32.74020 -97.50060 20814 ft 296 kts 277°
2026-05-05 19:41 32.74422 -97.52459 21312 ft 296 kts 277°
2026-05-05 19:41 32.74824 -97.54860 21806 ft 296 kts 277°
2026-05-05 19:41 32.75227 -97.57262 22292 ft 297 kts 277°
2026-05-05 19:42 32.75630 -97.59674 22760 ft 298 kts 277°
2026-05-05 19:42 32.76032 -97.62086 23211 ft 298 kts 277°
2026-05-05 19:42 32.76435 -97.64503 23587 ft 299 kts 277°
2026-05-05 19:42 32.76839 -97.66928 24101 ft 300 kts 277°
2026-05-05 19:43 32.77247 -97.69365 24446 ft 302 kts 277°
2026-05-05 19:43 32.77665 -97.71813 24785 ft 303 kts 278°
2026-05-05 19:43 32.78135 -97.74260 25139 ft 305 kts 278°
2026-05-05 19:43 32.78642 -97.76712 25461 ft 306 kts 279°
2026-05-05 19:44 32.79192 -97.79167 25762 ft 308 kts 280°
2026-05-05 19:44 32.79762 -97.81626 26057 ft 310 kts 280°
2026-05-05 19:44 32.80341 -97.84096 26354 ft 311 kts 280°
2026-05-05 19:44 32.80924 -97.86575 26481 ft 312 kts 280°
2026-05-05 19:45 32.81508 -97.89066 26768 ft 313 kts 280°
2026-05-05 19:45 32.82094 -97.91565 27055 ft 315 kts 280°
2026-05-05 19:45 32.82682 -97.94077 27335 ft 316 kts 280°
2026-05-05 19:45 32.83269 -97.96596 27598 ft 317 kts 279°
2026-05-05 19:46 32.83859 -97.99128 27896 ft 318 kts 279°
2026-05-05 19:46 32.84450 -98.01668 28250 ft 320 kts 279°
2026-05-05 19:46 32.85044 -98.04222 28578 ft 321 kts 279°
2026-05-05 19:46 32.85640 -98.06790 28886 ft 323 kts 279°
2026-05-05 19:47 32.86237 -98.09368 29195 ft 325 kts 279°
2026-05-05 19:47 32.86830 -98.11930 29483 ft 326 kts 279°
2026-05-05 19:47 32.87433 -98.14534 29771 ft 328 kts 279°
2026-05-05 19:47 32.88040 -98.17153 30019 ft 329 kts 279°
2026-05-05 19:48 32.88648 -98.19782 30282 ft 330 kts 279°
2026-05-05 19:48 32.89257 -98.22418 30542 ft 331 kts 279°
2026-05-05 19:48 32.89868 -98.25064 30782 ft 332 kts 279°
2026-05-05 19:48 32.90481 -98.27721 31006 ft 334 kts 279°
2026-05-05 19:49 32.91096 -98.30392 31247 ft 335 kts 279°
2026-05-05 19:49 32.91512 -98.32196 31396 ft 336 kts 279°
2026-05-05 19:49 32.92331 -98.35758 31712 ft 336 kts 279°
2026-05-05 19:49 32.92949 -98.38441 31998 ft 336 kts 279°
2026-05-05 19:50 32.93565 -98.41116 32291 ft 335 kts 279°
2026-05-05 19:50 32.94179 -98.43782 32577 ft 334 kts 279°
2026-05-05 19:50 32.94789 -98.46441 32830 ft 333 kts 279°
2026-05-05 19:50 32.95395 -98.49096 33087 ft 332 kts 279°
2026-05-05 19:51 32.96001 -98.51746 33354 ft 331 kts 279°
2026-05-05 19:51 32.96606 -98.54386 33633 ft 330 kts 279°
2026-05-05 19:51 32.97208 -98.57015 33885 ft 328 kts 279°
2026-05-05 19:51 32.97806 -98.59635 34097 ft 328 kts 279°
2026-05-05 19:52 32.98402 -98.62248 34300 ft 327 kts 279°
2026-05-05 19:52 32.98994 -98.64850 34499 ft 326 kts 279°
2026-05-05 19:52 32.99585 -98.67451 34685 ft 325 kts 278°
2026-05-05 19:52 33.00174 -98.70046 34865 ft 324 kts 278°
2026-05-05 19:53 33.00763 -98.72635 35044 ft 323 kts 278°
2026-05-05 19:53 33.01349 -98.75221 35203 ft 323 kts 278°
2026-05-05 19:53 33.01743 -98.76963 35322 ft 323 kts 278°
2026-05-05 19:53 33.02328 -98.79540 35476 ft 322 kts 278°
2026-05-05 19:54 33.02907 -98.82118 35592 ft 322 kts 278°
2026-05-05 19:54 33.04068 -98.87264 35720 ft 326 kts 278°
2026-05-05 19:55 33.05255 -98.92525 35751 ft 332 kts 278°
2026-05-05 19:55 33.06458 -98.97897 35755 ft 339 kts 278°
2026-05-05 19:56 33.07686 -99.03379 35762 ft 346 kts 278°
2026-05-05 19:56 33.08935 -99.08971 35760 ft 352 kts 278°
2026-05-05 19:57 33.10203 -99.14667 35758 ft 359 kts 278°
2026-05-05 19:57 33.11493 -99.20464 35759 ft 365 kts 278°
2026-05-05 19:58 33.12802 -99.26357 35767 ft 370 kts 278°
2026-05-05 19:58 33.14125 -99.32328 35759 ft 374 kts 278°
2026-05-05 19:59 33.15458 -99.38365 35761 ft 378 kts 278°
2026-05-05 19:59 33.16800 -99.44447 35762 ft 379 kts 278°
2026-05-05 20:00 33.18136 -99.50527 35759 ft 378 kts 278°
2026-05-05 20:00 33.19470 -99.56603 35759 ft 378 kts 278°
2026-05-05 20:01 33.20833 -99.62665 35757 ft 378 kts 278°
2026-05-05 20:01 33.22203 -99.68717 35757 ft 377 kts 278°
2026-05-05 20:02 33.23575 -99.74764 35760 ft 377 kts 278°
2026-05-05 20:02 33.24934 -99.80761 35762 ft 376 kts 278°
2026-05-05 20:03 33.26295 -99.86795 35761 ft 376 kts 278°
2026-05-05 20:03 33.27654 -99.92822 35764 ft 375 kts 278°
2026-05-05 20:04 33.29005 -99.98840 35769 ft 375 kts 278°
2026-05-05 20:04 33.30357 -100.04862 35756 ft 375 kts 278°
2026-05-05 20:05 33.31706 -100.10880 35759 ft 375 kts 278°
2026-05-05 20:05 33.33044 -100.16897 35754 ft 374 kts 278°
2026-05-05 20:06 33.34380 -100.22912 35762 ft 374 kts 278°
2026-05-05 20:06 33.35713 -100.28924 35761 ft 374 kts 278°
2026-05-05 20:07 33.37048 -100.34938 35763 ft 374 kts 277°
2026-05-05 20:07 33.38374 -100.40951 35760 ft 374 kts 277°
2026-05-05 20:08 33.39697 -100.46969 35764 ft 374 kts 277°
2026-05-05 20:08 33.41020 -100.52987 35763 ft 374 kts 277°
2026-05-05 20:09 33.42338 -100.58998 35764 ft 373 kts 277°
2026-05-05 20:09 33.43655 -100.65013 35774 ft 373 kts 277°
2026-05-05 20:10 33.44956 -100.70987 35772 ft 373 kts 277°
2026-05-05 20:10 33.46263 -100.77004 35771 ft 374 kts 277°
2026-05-05 20:11 33.47575 -100.83025 35771 ft 373 kts 277°
2026-05-05 20:11 33.48874 -100.89047 35762 ft 373 kts 277°
2026-05-05 20:12 33.50175 -100.95064 35761 ft 373 kts 277°
2026-05-05 20:12 33.51470 -101.01075 35766 ft 373 kts 277°
2026-05-05 20:13 33.52528 -101.07114 35763 ft 368 kts 273°
2026-05-05 20:13 33.53194 -101.13173 35765 ft 366 kts 270°
2026-05-05 20:14 33.53795 -101.19231 35758 ft 366 kts 271°
2026-05-05 20:14 33.54426 -101.25277 35751 ft 365 kts 270°
2026-05-05 20:15 33.55049 -101.31318 35752 ft 365 kts 270°
2026-05-05 20:15 33.55664 -101.37346 35745 ft 364 kts 270°
2026-05-05 20:16 33.56275 -101.43368 35758 ft 364 kts 270°
2026-05-05 20:16 33.56884 -101.49386 35786 ft 363 kts 270°
2026-05-05 20:17 33.57489 -101.55399 35815 ft 363 kts 270°
2026-05-05 20:17 33.58089 -101.61409 35844 ft 363 kts 270°
2026-05-05 20:18 33.58684 -101.67379 35866 ft 363 kts 270°
2026-05-05 20:18 33.59278 -101.73387 35890 ft 363 kts 270°
2026-05-05 20:19 33.59870 -101.79399 35894 ft 363 kts 270°
2026-05-05 20:19 33.60459 -101.85407 35896 ft 363 kts 269°
2026-05-05 20:20 33.61045 -101.91417 35887 ft 363 kts 269°
2026-05-05 20:20 33.61628 -101.97429 35863 ft 363 kts 269°
2026-05-05 20:21 33.62209 -102.03441 35842 ft 363 kts 269°
2026-05-05 20:21 33.62785 -102.09455 35817 ft 363 kts 269°
2026-05-05 20:22 33.63360 -102.15478 35844 ft 363 kts 269°
2026-05-05 20:22 33.63933 -102.21504 35864 ft 364 kts 269°
2026-05-05 20:23 33.64508 -102.27538 35886 ft 364 kts 269°
2026-05-05 20:23 33.64887 -102.33569 35906 ft 360 kts 264°
2026-05-05 20:24 33.64723 -102.39550 35906 ft 358 kts 261°
2026-05-05 20:24 33.64227 -102.45478 35894 ft 357 kts 259°
2026-05-05 20:25 33.63704 -102.51405 35871 ft 357 kts 259°
2026-05-05 20:25 33.63189 -102.57336 35852 ft 358 kts 259°
2026-05-05 20:26 33.62669 -102.63231 35825 ft 358 kts 259°
2026-05-05 20:26 33.62144 -102.69167 35756 ft 359 kts 259°
2026-05-05 20:26 33.61876 -102.72190 35152 ft 363 kts 259°
2026-05-05 20:27 33.61614 -102.75159 34673 ft 357 kts 259°
2026-05-05 20:27 33.61353 -102.78115 34201 ft 356 kts 259°
2026-05-05 20:27 33.61091 -102.81070 33736 ft 356 kts 258°
2026-05-05 20:27 33.60826 -102.84020 33220 ft 356 kts 258°
2026-05-05 20:28 33.60560 -102.86969 32712 ft 356 kts 258°
2026-05-05 20:28 33.60291 -102.89921 32211 ft 356 kts 258°
2026-05-05 20:28 33.60022 -102.92880 31723 ft 357 kts 258°
2026-05-05 20:28 33.59752 -102.95848 31242 ft 359 kts 258°
2026-05-05 20:29 33.59477 -102.98826 30776 ft 360 kts 258°
2026-05-05 20:29 33.59202 -103.01817 30307 ft 362 kts 258°
2026-05-05 20:29 33.58925 -103.04824 29855 ft 364 kts 258°
2026-05-05 20:29 33.58646 -103.07847 29318 ft 366 kts 259°
2026-05-05 20:30 33.58363 -103.10887 28788 ft 368 kts 259°
2026-05-05 20:30 33.58078 -103.13940 28269 ft 370 kts 259°
2026-05-05 20:30 33.57792 -103.17012 27752 ft 371 kts 259°
2026-05-05 20:30 33.57505 -103.20092 27253 ft 373 kts 259°
2026-05-05 20:31 33.57215 -103.23186 26758 ft 374 kts 259°
2026-05-05 20:31 33.56925 -103.26289 26275 ft 375 kts 259°
2026-05-05 20:31 33.56632 -103.29402 25796 ft 377 kts 259°
2026-05-05 20:31 33.56338 -103.32528 25326 ft 378 kts 259°
2026-05-05 20:32 33.56041 -103.35665 24865 ft 379 kts 259°
2026-05-05 20:32 33.55742 -103.38815 24408 ft 381 kts 259°
2026-05-05 20:32 33.55442 -103.41975 23962 ft 382 kts 259°
2026-05-05 20:32 33.55140 -103.45142 23520 ft 383 kts 260°
2026-05-05 20:33 33.54836 -103.48320 23028 ft 384 kts 260°
2026-05-05 20:33 33.54532 -103.51503 22500 ft 385 kts 260°
2026-05-05 20:33 33.54222 -103.54704 21981 ft 387 kts 260°
2026-05-05 20:33 33.53913 -103.57913 21482 ft 389 kts 260°
2026-05-05 20:34 33.53600 -103.61138 20977 ft 390 kts 260°
2026-05-05 20:34 33.53285 -103.64376 20489 ft 392 kts 260°
2026-05-05 20:34 33.52967 -103.67634 20000 ft 395 kts 261°
2026-05-05 20:34 33.52651 -103.70868 19535 ft 397 kts 261°
2026-05-05 20:35 33.52330 -103.74154 19074 ft 397 kts 261°
2026-05-05 20:35 33.52011 -103.77415 18616 ft 386 kts 261°
2026-05-05 20:35 33.51706 -103.80542 18157 ft 371 kts 261°
2026-05-05 20:35 33.51410 -103.83556 17638 ft 358 kts 261°
2026-05-05 20:36 33.51122 -103.86470 17125 ft 347 kts 261°
2026-05-05 20:36 33.50841 -103.89303 16600 ft 339 kts 261°
2026-05-05 20:36 33.50566 -103.92079 16090 ft 332 kts 262°
2026-05-05 20:36 33.50295 -103.94800 15588 ft 326 kts 262°
2026-05-05 20:37 33.50027 -103.97473 15096 ft 321 kts 262°
2026-05-05 20:37 33.49843 -103.99258 14766 ft 318 kts 262°
2026-05-05 20:37 33.49492 -104.02715 14078 ft 311 kts 262°
2026-05-05 20:37 33.49239 -104.05248 13506 ft 302 kts 262°
2026-05-05 20:38 33.48994 -104.07713 12869 ft 295 kts 262°
2026-05-05 20:38 33.48754 -104.10123 12236 ft 289 kts 262°
2026-05-05 20:38 33.48516 -104.12491 11616 ft 284 kts 262°
2026-05-05 20:38 33.48282 -104.14822 11019 ft 280 kts 262°
2026-05-05 20:39 33.48049 -104.17126 10438 ft 277 kts 262°
2026-05-05 20:39 33.47817 -104.19405 9870 ft 275 kts 262°
2026-05-05 20:39 33.47587 -104.21668 9280 ft 272 kts 262°
2026-05-05 20:39 33.47361 -104.23912 8676 ft 270 kts 262°
2026-05-05 20:40 33.47137 -104.26140 8086 ft 269 kts 261°
2026-05-05 20:40 33.46914 -104.28357 7520 ft 267 kts 261°
2026-05-05 20:40 33.46648 -104.30543 6954 ft 264 kts 252°
2026-05-05 20:40 33.45801 -104.32426 6572 ft 251 kts 234°
2026-05-05 20:41 33.44840 -104.34123 6304 ft 241 kts 233°
2026-05-05 20:41 33.43796 -104.35637 6011 ft 231 kts 226°
2026-05-05 20:41 33.42676 -104.36976 5682 ft 223 kts 223°
2026-05-05 20:41 33.41560 -104.38246 5386 ft 219 kts 224°
2026-05-05 20:42 33.40850 -104.39066 5286 ft 207 kts 224°
2026-05-05 20:42 33.39844 -104.40206 5253 ft 189 kts 224°
2026-05-05 20:42 33.38998 -104.41200 5337 ft 157 kts 226°
2026-05-05 20:42 33.38263 -104.42090 5195 ft 145 kts 227°
2026-05-05 20:43 33.37548 -104.42941 5081 ft 147 kts 226°
2026-05-05 20:43 33.36818 -104.43823 4935 ft 152 kts 227°
2026-05-05 20:43 33.36095 -104.44729 4796 ft 150 kts 228°
2026-05-05 20:43 33.35367 -104.45620 4618 ft 147 kts 226°
2026-05-05 20:44 33.34642 -104.46464 4458 ft 145 kts 229°
2026-05-05 20:44 33.33935 -104.47320 4280 ft 146 kts 229°
2026-05-05 20:44 33.33223 -104.48183 4143 ft 147 kts 231°
2026-05-05 20:44 33.32499 -104.49049 3989 ft 148 kts 232°
2026-05-05 20:45 33.31036 -104.50792 3652 ft 144 kts 233°
2026-05-05 20:45 33.30419 -104.51529 3642 ft 121 kts 231°
2026-05-05 20:46 33.30012 -104.52020 3650 ft 127 kts 222°
2026-05-05 20:46 33.29279 -104.52933 3686 ft 177 kts 224°
2026-05-05 20:46 33.28353 -104.53925 4360 ft 180 kts 222°
2026-05-05 20:47 33.27275 -104.54830 4748 ft 208 kts 202°
2026-05-05 20:47 33.25792 -104.54651 4872 ft 236 kts 154°
2026-05-05 20:47 33.24834 -104.53036 5007 ft 251 kts 104°
2026-05-05 20:47 33.25191 -104.51056 5049 ft 248 kts 55°
2026-05-05 20:48 33.26290 -104.49505 5160 ft 242 kts 43°
2026-05-05 20:48 33.27491 -104.48123 5155 ft 238 kts 41°
2026-05-05 20:48 33.28700 -104.46760 5080 ft 240 kts 40°
2026-05-05 20:48 33.29939 -104.45438 5031 ft 238 kts 39°
2026-05-05 20:49 33.31193 -104.44139 4929 ft 238 kts 35°
2026-05-05 20:49 33.32643 -104.43510 4876 ft 208 kts 358°
2026-05-05 20:49 33.33885 -104.43987 4803 ft 179 kts 315°
2026-05-05 20:49 33.34449 -104.45158 4746 ft 156 kts 274°
2026-05-05 20:50 33.34259 -104.46356 4657 ft 143 kts 249°
2026-05-05 20:50 33.33784 -104.47359 4448 ft 137 kts 235°
2026-05-05 20:50 33.33178 -104.48224 4232 ft 134 kts 232°
2026-05-05 20:50 33.32515 -104.49016 4011 ft 136 kts 232°
2026-05-05 20:51 33.31853 -104.49812 3832 ft 137 kts 233°
2026-05-05 20:51 33.31163 -104.50636 3667 ft 141 kts 232°
2026-05-05 20:51 33.30521 -104.51391 3641 ft 113 kts 233°
2026-05-05 20:51 33.30254 -104.51722 3644 ft 78 kts 225°
2026-05-05 20:52 33.30099 -104.51913 3649 ft 55 kts 224°
2026-05-05 20:52 33.29907 -104.52140 3651 ft 0 kts 225°